BAW822 EGLL-EKCH

Flight info

Callsign BAW822
Flight time N/A
Altitude 35000
Route BPK Q295 SOMVA DCT MAVAS DCT ROCZO DCT DOSUR P729 TUDLO
Aircraft A320/M-SDE3FGHIRWY/LB1

Departure

Time 2026-05-03 20:32
Airport London Heathrow Airport (EGLL)

Arrival

Time N/A
Airport Copenhagen Kastrup Airport (EKCH)
Time Latitude Longitude Altitude Speed Heading
2026-05-03 20:15 51.46876 -0.48696 87 ft 0 kts 90°
2026-05-03 20:20 51.46876 -0.48667 87 ft 6 kts 90°
2026-05-03 20:20 51.46876 -0.48591 87 ft 7 kts 90°
2026-05-03 20:21 51.46876 -0.48510 87 ft 7 kts 92°
2026-05-03 20:21 51.46844 -0.48460 87 ft 7 kts 182°
2026-05-03 20:21 51.46795 -0.48466 89 ft 7 kts 184°
2026-05-03 20:21 51.46749 -0.48449 88 ft 7 kts 128°
2026-05-03 20:22 51.46743 -0.48369 87 ft 8 kts 91°
2026-05-03 20:22 51.46742 -0.48309 87 ft 0 kts 91°
2026-05-03 20:22 51.46742 -0.48305 87 ft 1 kts 90°
2026-05-03 20:22 51.46742 -0.48266 88 ft 7 kts 90°
2026-05-03 20:23 51.46742 -0.48153 87 ft 13 kts 90°
2026-05-03 20:23 51.46743 -0.47985 87 ft 17 kts 89°
2026-05-03 20:23 51.46744 -0.47772 87 ft 21 kts 89°
2026-05-03 20:23 51.46745 -0.47528 87 ft 22 kts 89°
2026-05-03 20:24 51.46747 -0.47280 91 ft 23 kts 89°
2026-05-03 20:24 51.46748 -0.47023 87 ft 23 kts 89°
2026-05-03 20:24 51.46740 -0.46758 88 ft 23 kts 108°
2026-05-03 20:24 51.46741 -0.46611 88 ft 12 kts 74°
2026-05-03 20:25 51.46732 -0.46454 87 ft 16 kts 133°
2026-05-03 20:25 51.46659 -0.46330 91 ft 17 kts 92°
2026-05-03 20:25 51.46660 -0.46128 88 ft 19 kts 89°
2026-05-03 20:25 51.46660 -0.45899 87 ft 22 kts 90°
2026-05-03 20:26 51.46663 -0.45640 87 ft 24 kts 89°
2026-05-03 20:26 51.46666 -0.45365 87 ft 26 kts 89°
2026-05-03 20:26 51.46666 -0.45080 87 ft 22 kts 92°
2026-05-03 20:26 51.46664 -0.44857 87 ft 19 kts 86°
2026-05-03 20:27 51.46664 -0.44631 87 ft 18 kts 90°
2026-05-03 20:27 51.46663 -0.44440 87 ft 18 kts 89°
2026-05-03 20:27 51.46666 -0.44245 87 ft 15 kts 89°
2026-05-03 20:27 51.46667 -0.44120 87 ft 9 kts 89°
2026-05-03 20:28 51.46667 -0.44003 87 ft 13 kts 91°
2026-05-03 20:28 51.46667 -0.43861 87 ft 8 kts 86°
2026-05-03 20:28 51.46668 -0.43746 87 ft 13 kts 91°
2026-05-03 20:28 51.46663 -0.43627 87 ft 8 kts 110°
2026-05-03 20:29 51.46615 -0.43606 87 ft 0 kts 181°
2026-05-03 20:30 51.46613 -0.43606 87 ft 2 kts 181°
2026-05-03 20:30 51.46562 -0.43607 87 ft 11 kts 181°
2026-05-03 20:31 51.46492 -0.43637 87 ft 8 kts 245°
2026-05-03 20:31 51.46495 -0.43742 86 ft 11 kts 272°
2026-05-03 20:31 51.46494 -0.44112 86 ft 67 kts 269°
2026-05-03 20:31 51.46489 -0.45236 88 ft 127 kts 270°
2026-05-03 20:32 51.46477 -0.46877 200 ft 160 kts 269°
2026-05-03 20:32 51.46469 -0.48642 834 ft 160 kts 269°
2026-05-03 20:32 51.46456 -0.50430 1447 ft 165 kts 270°
2026-05-03 20:32 51.46565 -0.52404 1718 ft 190 kts 285°
2026-05-03 20:33 51.47153 -0.54461 2080 ft 211 kts 299°
2026-05-03 20:33 51.47942 -0.56575 2514 ft 231 kts 301°
2026-05-03 20:33 51.48802 -0.58843 3099 ft 249 kts 301°
2026-05-03 20:33 51.49703 -0.61312 3832 ft 261 kts 299°
2026-05-03 20:34 51.50725 -0.63763 4712 ft 268 kts 316°
2026-05-03 20:34 51.52374 -0.65165 5546 ft 276 kts 347°
2026-05-03 20:34 51.54292 -0.65421 5893 ft 278 kts
2026-05-03 20:34 51.56087 -0.64408 5990 ft 276 kts 36°
2026-05-03 20:35 51.57470 -0.62285 6005 ft 275 kts 53°
2026-05-03 20:35 51.58556 -0.59754 6006 ft 275 kts 56°
2026-05-03 20:35 51.59683 -0.57272 6005 ft 275 kts 54°
2026-05-03 20:35 51.60722 -0.54859 6003 ft 275 kts 65°
2026-05-03 20:36 51.61153 -0.51888 6238 ft 276 kts 88°
2026-05-03 20:36 51.61252 -0.48795 7152 ft 278 kts 91°
2026-05-03 20:36 51.60825 -0.45774 8108 ft 281 kts 116°
2026-05-03 20:36 51.59913 -0.42983 9231 ft 284 kts 121°
2026-05-03 20:37 51.58922 -0.40132 10240 ft 295 kts 121°
2026-05-03 20:37 51.57876 -0.37132 10752 ft 320 kts 121°
2026-05-03 20:37 51.56741 -0.33884 11269 ft 344 kts 121°
2026-05-03 20:37 51.55504 -0.30346 11653 ft 367 kts 121°
2026-05-03 20:38 51.54428 -0.26860 11892 ft 345 kts 110°
2026-05-03 20:38 51.54121 -0.23077 12146 ft 346 kts 87°
2026-05-03 20:38 51.54729 -0.19327 12415 ft 350 kts 64°
2026-05-03 20:38 51.56216 -0.16156 12954 ft 356 kts 44°
2026-05-03 20:39 51.58067 -0.13470 13634 ft 361 kts 41°
2026-05-03 20:39 51.59965 -0.10802 13898 ft 363 kts 41°
2026-05-03 20:39 51.61866 -0.08135 14138 ft 364 kts 41°
2026-05-03 20:39 51.63777 -0.05451 14379 ft 365 kts 41°
2026-05-03 20:40 51.65689 -0.02764 14625 ft 366 kts 41°
2026-05-03 20:40 51.67542 -0.00156 14848 ft 367 kts 41°
2026-05-03 20:40 51.69466 0.02553 14920 ft 368 kts 41°
2026-05-03 20:40 51.71393 0.05269 14929 ft 368 kts 41°
2026-05-03 20:41 51.73312 0.07979 14913 ft 368 kts 41°
2026-05-03 20:41 51.75239 0.10703 14915 ft 367 kts 41°
2026-05-03 20:41 51.77154 0.13414 14918 ft 367 kts 41°
2026-05-03 20:41 51.79107 0.16181 14919 ft 367 kts 41°
2026-05-03 20:42 51.80967 0.19015 14936 ft 369 kts 51°
2026-05-03 20:42 51.82274 0.22574 15533 ft 370 kts 69°
2026-05-03 20:42 51.83151 0.26493 16207 ft 372 kts 72°
2026-05-03 20:42 51.84011 0.30459 16862 ft 375 kts 72°
2026-05-03 20:43 51.84866 0.34470 17506 ft 378 kts 72°
2026-05-03 20:43 51.85719 0.38515 18146 ft 382 kts 73°
2026-05-03 20:43 51.86575 0.42605 18701 ft 386 kts 73°
2026-05-03 20:43 51.87439 0.46735 19255 ft 390 kts 73°
2026-05-03 20:44 51.88316 0.50929 19814 ft 394 kts 73°
2026-05-03 20:44 51.89196 0.55139 20357 ft 398 kts 73°
2026-05-03 20:44 51.89798 0.58017 20724 ft 401 kts 73°
2026-05-03 20:44 51.90696 0.62317 21256 ft 405 kts 73°
2026-05-03 20:45 51.91603 0.66661 21775 ft 409 kts 73°
2026-05-03 20:45 51.92518 0.71050 22304 ft 413 kts 73°
2026-05-03 20:45 51.93440 0.75484 22825 ft 417 kts 73°
2026-05-03 20:45 51.94369 0.79959 23355 ft 421 kts 73°
2026-05-03 20:46 51.95307 0.84496 23808 ft 425 kts 73°
2026-05-03 20:46 51.96256 0.89123 24254 ft 428 kts 74°
2026-05-03 20:46 51.97194 0.93720 24694 ft 431 kts 74°
2026-05-03 20:46 51.98141 0.98350 25136 ft 434 kts 74°
2026-05-03 20:47 51.99091 1.03000 25565 ft 436 kts 74°
2026-05-03 20:47 52.00050 1.07700 25992 ft 439 kts 74°
2026-05-03 20:47 52.01012 1.12415 26399 ft 442 kts 74°
2026-05-03 20:47 52.01955 1.17055 26809 ft 444 kts 75°
2026-05-03 20:48 52.02921 1.21830 27204 ft 447 kts 75°
2026-05-03 20:48 52.03889 1.26647 27588 ft 450 kts 75°
2026-05-03 20:48 52.04859 1.31484 27979 ft 452 kts 75°
2026-05-03 20:48 52.05849 1.36421 28380 ft 455 kts 75°
2026-05-03 20:49 52.06820 1.41262 28732 ft 458 kts 75°
2026-05-03 20:49 52.07824 1.46259 29107 ft 461 kts 75°
2026-05-03 20:49 52.08820 1.51230 29465 ft 463 kts 75°
2026-05-03 20:49 52.09815 1.56227 29830 ft 466 kts 76°
2026-05-03 20:50 52.10817 1.61261 30149 ft 469 kts 75°
2026-05-03 20:50 52.11824 1.66327 30458 ft 472 kts 75°
2026-05-03 20:50 52.12831 1.71415 30785 ft 474 kts 75°
2026-05-03 20:50 52.13842 1.76531 31106 ft 475 kts 75°
2026-05-03 20:51 52.14852 1.81659 31478 ft 476 kts 75°
2026-05-03 20:51 52.15856 1.86786 31955 ft 474 kts 75°
2026-05-03 20:51 52.16852 1.91891 32427 ft 472 kts 75°
2026-05-03 20:51 52.17840 1.96981 32895 ft 470 kts 75°
2026-05-03 20:52 52.18834 2.02120 33371 ft 469 kts 75°
2026-05-03 20:52 52.19815 2.07179 33845 ft 467 kts 75°
2026-05-03 20:52 52.20793 2.12224 34247 ft 466 kts 75°
2026-05-03 20:52 52.21765 2.17255 34598 ft 466 kts 75°
2026-05-03 20:53 52.22738 2.22301 34848 ft 467 kts 75°
2026-05-03 20:53 52.24666 2.32364 34922 ft 462 kts 75°
2026-05-03 20:54 52.26567 2.42372 34913 ft 462 kts 75°
2026-05-03 20:54 52.29417 2.57466 34920 ft 462 kts 75°
2026-05-03 20:55 52.31305 2.67497 34927 ft 462 kts 76°
2026-05-03 20:55 52.33105 2.77571 34925 ft 462 kts 77°
2026-05-03 20:56 52.34848 2.87680 34926 ft 462 kts 77°
2026-05-03 20:56 52.36593 2.97797 34921 ft 462 kts 77°
2026-05-03 20:57 52.38347 3.07909 34928 ft 462 kts 76°
2026-05-03 20:57 52.40500 3.17837 34927 ft 466 kts 64°
2026-05-03 20:58 52.43980 3.26813 34922 ft 467 kts 57°
2026-05-03 20:58 52.47579 3.35683 34918 ft 468 kts 58°
2026-05-03 20:59 52.51187 3.44647 34924 ft 468 kts 58°
2026-05-03 20:59 52.54766 3.53585 34930 ft 468 kts 58°
2026-05-03 21:00 52.57746 3.61026 34922 ft 469 kts 58°
2026-05-03 21:00 52.61925 3.71519 34936 ft 469 kts 58°
2026-05-03 21:01 52.65502 3.80514 34925 ft 470 kts 58°
2026-05-03 21:01 52.69080 3.89535 34925 ft 470 kts 58°
2026-05-03 21:02 52.72651 3.98585 34920 ft 471 kts 58°
2026-05-03 21:02 52.76208 4.07660 34921 ft 471 kts 58°
2026-05-03 21:03 52.79768 4.16757 34931 ft 471 kts 58°
2026-05-03 21:03 52.83323 4.25862 34931 ft 472 kts 58°
2026-05-03 21:04 52.86903 4.35048 34930 ft 471 kts 58°
2026-05-03 21:04 52.90444 4.44181 34929 ft 471 kts 58°
2026-05-03 21:05 52.93971 4.53333 34954 ft 471 kts 58°
2026-05-03 21:05 52.97494 4.62507 34961 ft 471 kts 58°
2026-05-03 21:06 53.01007 4.71676 34963 ft 471 kts 58°
2026-05-03 21:06 53.04519 4.80854 34960 ft 470 kts 59°
2026-05-03 21:07 53.08034 4.90111 34953 ft 470 kts 59°
2026-05-03 21:07 53.11523 4.99310 34947 ft 470 kts 59°
2026-05-03 21:08 53.15003 5.08511 34941 ft 470 kts 59°
2026-05-03 21:08 53.18472 5.17733 34937 ft 470 kts 59°
2026-05-03 21:09 53.21933 5.26970 34937 ft 469 kts 59°
2026-05-03 21:09 53.25384 5.36221 34935 ft 469 kts 59°
2026-05-03 21:10 53.28829 5.45482 34936 ft 469 kts 59°
2026-05-03 21:10 53.32269 5.54745 34933 ft 469 kts 59°
2026-05-03 21:11 53.35677 5.63951 34932 ft 469 kts 59°
2026-05-03 21:11 53.39118 5.73315 34936 ft 468 kts 60°
2026-05-03 21:12 53.41976 5.81115 34936 ft 468 kts 60°
2026-05-03 21:12 53.45383 5.90433 34933 ft 469 kts 60°
2026-05-03 21:13 53.48781 5.99758 34930 ft 469 kts 60°
2026-05-03 21:13 53.52176 6.09132 34929 ft 469 kts 60°
2026-05-03 21:14 53.55557 6.18516 34926 ft 470 kts 60°
2026-05-03 21:14 53.58944 6.27912 34921 ft 470 kts 60°
2026-05-03 21:15 53.62334 6.37327 34918 ft 470 kts 60°
2026-05-03 21:15 53.65736 6.46848 34915 ft 471 kts 61°
2026-05-03 21:16 53.69103 6.56332 34906 ft 472 kts 61°
2026-05-03 21:16 53.72474 6.65846 34903 ft 472 kts 61°
2026-05-03 21:17 53.75297 6.73832 34901 ft 473 kts 61°
2026-05-03 21:17 53.79236 6.85017 34895 ft 474 kts 61°
2026-05-03 21:18 53.82603 6.94616 34892 ft 475 kts 61°
2026-05-03 21:18 53.85961 7.04253 34893 ft 476 kts 62°
2026-05-03 21:19 53.89325 7.13930 34890 ft 476 kts 62°
2026-05-03 21:19 53.92689 7.23613 34893 ft 477 kts 62°
2026-05-03 21:20 53.96049 7.33322 34893 ft 477 kts 62°
2026-05-03 21:20 53.99419 7.43126 34890 ft 478 kts 62°
2026-05-03 21:21 54.02752 7.52898 34893 ft 478 kts 62°
2026-05-03 21:21 54.06085 7.62688 34883 ft 478 kts 62°
2026-05-03 21:22 54.09416 7.72488 34889 ft 478 kts 62°
2026-05-03 21:22 54.12743 7.82322 34897 ft 478 kts 63°
2026-05-03 21:23 54.16268 7.92043 34898 ft 481 kts 53°
2026-05-03 21:23 54.20806 8.00436 34888 ft 482 kts 47°
2026-05-03 21:24 54.25449 8.08700 34892 ft 482 kts 47°
2026-05-03 21:24 54.30077 8.17003 34886 ft 482 kts 48°
2026-05-03 21:25 54.34683 8.25324 34885 ft 482 kts 48°
2026-05-03 21:25 54.39331 8.33725 34877 ft 482 kts 48°
2026-05-03 21:26 54.43944 8.42094 34879 ft 482 kts 48°
2026-05-03 21:26 54.48552 8.50469 34872 ft 482 kts 48°
2026-05-03 21:27 54.53158 8.58855 34878 ft 482 kts 48°
2026-05-03 21:27 54.57760 8.67276 34869 ft 482 kts 48°
2026-05-03 21:28 54.62379 8.75769 34875 ft 482 kts 48°
2026-05-03 21:28 54.66970 8.84236 34862 ft 483 kts 48°
2026-05-03 21:29 54.70820 8.91360 34868 ft 483 kts 49°
2026-05-03 21:29 54.75398 8.99863 34868 ft 483 kts 49°
2026-05-03 21:30 54.76173 9.01303 34866 ft 483 kts 49°